Theta_e
301 300 300 300 300 300 300 300 300 300 301 304 304 305 304 304 304 303 303 303 303 304 304 303 303 303 304 303 305 304 308 308 306 314 318 315 313 312 320 323 324 330 334 332 328 332 330 335 340 330 331 341 340 340
301 301 301 300 300 301 300 300 301 301 302 302 304 304 304 305 304 304 304 303 303 303 302 303 303 303 304 304 303 302 307 308 310 309 311 314 319 319 320 326 326 329 329 332 332 336 331 329 344 346 347 349 349 348
301 301 301 301 301 301 301 301 301 302 302 302 304 304 304 304 304 304 303 302 303 303 302 300 301 303 303 303 303 306 305 306 308 307 308 311 315 320 323 326 328 329 329 333 334 331 336 332 333 342 341 342 341 342
301 301 301 301 301 302 302 302 303 303 302 304 304 304 304 304 303 304 304 303 303 303 304 302 303 303 303 304 303 304 304 307 308 308 307 308 312 314 319 321 328 328 331 333 334 334 335 333 330 335 340 339 338 337
301 301 301 301 301 301 301 301 301 302 302 304 304 305 305 304 304 303 301 302 303 304 305 304 303 304 305 308 305 305 304 305 308 307 310 312 315 316 321 324 328 326 329 333 339 332 334 331 329 329 330 331 332 334
301 301 301 301 301 301 301 302 303 303 304 304 305 305 305 305 304 303 303 305 305 304 305 304 304 304 307 309 309 304 305 305 306 308 311 312 311 315 321 326 325 325 327 328 334 330 327 327 327 326 327 328 328 328
301 301 301 301 300 301 301 303 304 305 304 305 305 306 305 305 305 303 304 305 304 303 304 307 306 307 310 309 310 305 308 310 310 311 310 310 314 315 324 324 323 322 326 331 330 327 327 327 328 328 328 327 328 328
301 300 300 300 300 301 301 304 305 305 305 305 306 307 306 306 306 306 305 305 303 304 305 308 307 309 311 313 314 311 313 311 312 313 313 314 316 321 323 321 320 324 329 332 330 327 325 326 327 327 327 328 328 327
300 301 301 301 301 301 302 305 306 305 307 308 309 309 307 306 305 307 307 306 304 305 306 306 308 312 310 314 314 315 312 314 312 314 315 316 320 324 323 325 324 327 328 331 328 327 327 327 326 326 327 328 329 328
302 302 302 302 302 303 303 307 306 306 309 309 310 310 311 310 310 308 306 306 305 305 304 303 303 307 311 315 316 317 316 316 317 313 313 319 319 320 321 322 322 324 324 326 327 326 326 326 328 328 327 327 328 328
303 303 303 303 304 304 306 307 305 307 309 308 304 307 307 308 310 310 312 310 309 308 304 303 307 310 312 316 316 317 318 313 313 317 318 315 319 320 320 322 323 322 322 323 324 323 323 323 324 326 327 326 326 327
301 301 302 303 305 305 309 307 306 307 308 307 306 307 308 311 309 310 310 310 314 315 315 315 318 315 318 317 317 318 317 316 321 320 317 316 320 320 321 322 322 322 323 323 323 324 326 326 325 325 325 326 325 326
302 302 302 304 305 309 308 306 307 309 310 310 308 312 312 311 314 311 313 314 315 316 319 320 320 319 319 317 319 320 321 323 320 316 313 317 318 320 321 322 323 323 324 325 325 324 325 325 324 323 323 322 322 323
303 303 304 305 309 309 307 307 309 310 311 311 312 311 313 316 317 317 320 318 318 316 317 318 320 320 320 323 323 323 319 317 319 318 317 317 320 322 321 322 322 323 324 324 324 323 323 323 323 322 322 322 321 320
303 305 306 309 310 307 308 310 312 312 313 314 311 314 318 315 316 318 319 318 317 316 317 319 320 318 319 320 319 319 319 317 315 317 322 321 320 320 320 320 319 320 321 321 320 320 320 320 319 318 319 320 320 320
305 306 310 310 309 310 311 313 314 315 316 312 314 318 316 316 317 319 318 318 317 315 315 315 318 320 319 317 319 319 318 317 321 321 320 320 320 320 320 320 318 317 317 316 316 316 317 319 316 316 317 319 319 319
306 308 308 309 310 312 313 313 315 316 312 316 316 313 315 315 317 316 314 315 315 316 317 317 321 322 318 321 319 318 320 320 319 319 317 317 318 319 318 318 317 317 316 313 312 313 312 311 310 313 315 315 319 316
307 309 310 311 310 312 314 315 313 314 316 315 315 315 313 314 315 315 314 313 313 316 317 319 318 319 321 321 320 320 319 318 318 318 318 317 317 317 317 317 319 314 315 314 310 309 308 308 307 308 309 312 314 314
310 312 312 312 310 311 312 313 313 315 315 314 313 314 314 314 313 313 313 313 311 310 312 314 314 315 315 316 316 317 318 318 318 316 316 316 317 318 318 316 314 313 310 309 309 308 307 306 306 307 308 308 308 310
314 313 313 314 313 313 314 311 314 313 316 316 314 314 314 314 313 313 313 312 311 311 311 311 314 315 310 307 307 308 312 316 313 311 315 315 314 315 313 313 311 309 308 307 307 306 305 305 307 307 307 307 306 306
316 314 315 316 316 314 312 311 312 312 313 314 312 313 314 313 313 313 313 310 312 313 313 311 308 307 307 305 304 304 304 308 308 307 308 308 308 308 310 308 307 306 305 305 305 305 305 304 305 307 306 306 306 306
314 314 315 317 317 316 314 315 312 312 314 314 314 314 315 315 314 313 310 312 313 312 312 311 309 308 304 303 303 303 303 303 304 303 304 305 305 304 304 303 303 302 302 303 303 303 304 305 305 304 304 306 306 306
314 315 317 318 318 309 312 317 317 316 317 317 316 318 317 316 313 310 311 309 311 311 310 309 310 310 307 303 302 301 301 301 301 301 301 304 302 301 300 300 300 301 301 301 302 303 302 301 303 303 303 303 303 305
315 315 317 318 317 316 319 319 318 318 318 319 321 321 319 317 315 314 314 309 307 309 307 307 308 306 306 302 300 300 299 299 299 299 300 301 300 298 297 297 297 298 299 298 299 300 298 298 298 298 298 299 300 301
310 314 315 310 317 320 321 320 319 318 320 320 319 318 317 313 316 315 314 309 307 307 306 306 306 305 301 299 298 298 297 297 296 296 297 297 297 297 297 296 296 297 297 297 298 297 296 296 296 297 297 298 297 298
315 321 318 322 318 318 319 322 321 320 318 319 320 317 315 316 316 314 312 311 311 310 305 305 305 302 299 299 296 296 296 296 296 295 296 295 295 295 295 294 294 295 296 297 296 295 295 295 296 296 295 295 295 295
319 320 318 320 317 317 318 318 317 316 316 317 318 317 316 315 315 311 309 310 310 311 309 307 302 300 299 299 297 296 295 295 295 295 295 295 294 294 294 294 294 294 295 295 295 295 295 295 295 295 294 293 293 294
321 322 322 318 323 319 317 316 315 314 313 312 314 315 315 315 312 308 307 311 311 309 304 301 300 299 299 298 297 296 295 294 294 293 293 293 293 294 294 294 294 294 294 294 294 294 294 294 294 293 293 292 292 293
320 318 317 320 319 317 317 315 314 311 310 311 313 313 311 309 310 310 311 311 310 310 301 300 299 299 298 297 295 294 294 293 292 291 291 290 291 293 293 293 293 293 293 294 293 293 293 293 293 293 292 292 292 292
323 317 321 321 319 318 315 312 312 310 309 309 309 309 309 309 311 312 312 310 303 302 302 300 299 299 298 296 294 293 293 293 292 292 290 289 291 292 292 292 292 292 292 293 292 292 293 292 292 292 292 292 292 292
318 319 323 321 319 317 313 313 313 312 310 310 310 310 310 309 312 311 311 304 301 301 301 300 299 298 297 297 296 293 292 292 292 292 292 292 291 292 292 292 292 292 292 293 292 292 292 292 292 292 292 292 292 292
318 317 316 320 320 317 315 315 314 315 314 314 313 312 312 312 313 308 304 303 301 300 300 299 298 297 297 296 296 296 295 293 293 292 292 292 292 292 292 291 291 292 292 292 292 292 292 292 292 292 293 293 293 294
318 317 317 318 320 320 320 320 320 319 318 317 314 314 313 310 308 305 303 302 301 300 300 299 298 297 296 296 295 295 295 294 293 293 293 292 292 292 291 291 291 291 291 292 292 292 292 292 292 292 293 293 293 293
Wind_Speed
23 23 23 23 23 24 25 24 23 23 21 20 18 18 17 16 14 9 12 15 10 3 9 14 16 15 10 6 5 4 6 1 2 4 4 4 4 5 4 7 11 5 5 3 4 5 8 25 13 7 6 4 7 5
23 23 22 22 23 24 24 23 24 24 23 22 20 19 19 16 15 12 8 6 12 3 7 27 29 30 24 18 5 3 4 5 2 3 2 4 4 4 5 4 6 7 5 5 5 5 12 12 7 6 9 9 4 6
23 23 23 23 23 24 25 25 25 26 26 24 22 21 19 17 16 13 12 13 10 3 9 6 10 22 25 34 36 7 5 7 5 4 2 2 6 5 3 4 4 10 7 3 4 1 9 15 13 8 14 12 11 13
23 23 23 24 25 26 27 27 28 31 32 28 25 23 21 20 18 15 16 17 11 3 3 6 10 17 22 23 28 38 22 3 3 2 3 3 5 4 3 6 4 2 4 6 2 10 12 11 14 7 12 13 15 16
23 24 26 27 29 30 32 33 34 34 34 30 28 25 23 20 19 19 25 23 19 5 3 7 24 9 11 16 25 27 26 17 5 2 4 4 3 5 4 5 2 3 2 5 1 4 4 6 12 10 20 17 13 13
25 27 28 29 31 35 37 34 34 35 37 35 29 25 22 18 14 8 3 5 7 12 3 4 6 6 16 17 10 8 11 9 6 4 4 2 4 3 3 3 3 4 2 3 2 2 4 0 9 14 20 19 20 18
26 29 31 32 36 39 41 37 36 40 40 34 30 22 17 12 9 5 6 4 14 5 2 4 4 4 9 5 2 2 4 3 3 2 2 2 3 3 2 1 3 10 9 7 9 7 6 10 8 14 18 17 18 16
29 30 33 35 37 40 42 39 40 44 41 35 27 19 13 10 10 12 24 21 26 4 2 3 4 5 4 4 3 2 3 2 2 2 2 3 3 3 2 3 7 7 4 11 9 6 5 7 11 12 13 16 18 14
32 34 35 38 39 41 42 39 43 43 39 25 22 8 3 4 3 5 6 1 10 4 2 2 2 3 4 3 2 4 2 2 1 1 2 3 3 2 5 6 10 6 3 10 14 9 8 9 9 9 11 12 17 11
34 36 37 38 40 40 40 37 42 38 27 20 7 2 1 3 9 3 2 2 2 3 2 3 2 3 3 2 2 0 0 1 1 1 3 3 4 8 8 7 7 8 12 7 14 10 8 9 9 8 8 6 6 7
34 36 37 38 39 40 33 38 36 33 12 10 5 2 9 7 3 2 2 2 1 2 3 4 6 4 3 3 2 3 1 2 3 2 2 5 5 8 14 13 10 13 14 11 9 8 6 6 4 7 5 12 6 4
34 35 36 37 37 34 33 37 33 22 15 13 15 12 6 2 2 3 4 5 3 3 3 3 2 4 1 2 2 1 2 2 4 2 3 4 6 10 11 10 10 11 8 8 7 8 11 15 8 12 5 7 6 7
33 34 34 34 33 27 38 36 29 19 21 4 1 3 2 4 5 4 6 4 4 3 3 4 5 2 1 2 2 1 5 5 2 4 3 3 8 11 13 7 6 6 4 5 8 8 11 13 14 9 7 11 15 15
31 31 31 30 22 35 36 32 22 18 4 2 3 8 4 5 4 4 10 6 6 5 7 4 2 1 1 2 3 5 4 4 4 4 4 2 4 8 8 5 3 4 6 12 12 11 11 11 8 13 16 15 15 11
28 30 26 14 32 34 28 21 22 8 1 2 4 7 6 5 7 11 10 7 7 4 3 2 3 4 5 5 5 4 5 5 4 3 3 7 9 7 10 11 10 10 9 9 8 9 8 9 7 9 17 18 18 18
26 22 6 23 29 23 18 20 8 3 3 3 4 5 5 4 9 11 13 13 13 12 3 4 5 5 9 4 6 8 3 4 5 4 6 7 11 10 9 9 8 10 8 8 9 11 12 10 7 10 20 18 19 23
19 5 20 24 27 15 12 8 4 2 4 4 4 4 4 3 5 7 10 9 7 11 12 4 7 8 2 4 6 5 5 5 4 5 4 5 4 6 9 11 9 11 11 18 22 23 20 23 29 22 12 17 22 24
7 19 16 19 25 14 10 5 4 3 3 4 4 5 4 3 7 9 11 13 7 7 6 6 4 7 5 5 6 5 3 4 4 4 3 5 7 8 10 8 11 16 15 17 19 22 23 23 15 11 22 22 21 22
19 15 14 18 17 7 4 6 4 3 4 2 3 4 5 4 7 11 10 11 12 8 4 4 7 4 4 3 7 5 3 4 3 4 3 5 5 4 7 11 17 18 19 18 17 13 15 22 19 20 20 23 15 20
11 10 17 15 8 3 5 5 8 4 3 3 3 5 4 4 5 8 9 10 5 4 9 6 5 3 3 4 2 3 4 4 4 5 5 8 14 10 11 13 14 18 18 19 21 23 20 21 26 23 26 26 22 19
7 13 12 10 3 2 1 1 3 2 2 2 3 2 2 3 8 9 10 6 8 8 5 3 2 2 3 12 19 20 17 13 5 8 3 5 16 21 20 22 24 24 19 17 13 17 23 19 25 22 26 23 25 26
6 11 6 3 1 5 2 2 3 2 2 2 1 2 2 3 3 4 3 9 8 4 4 4 4 3 9 10 11 19 20 23 23 24 28 22 8 10 14 18 20 15 18 18 19 17 20 27 27 30 30 23 23 23
7 5 4 2 1 4 5 0 0 2 1 2 2 3 3 4 3 3 3 4 3 4 7 6 12 14 11 21 26 25 28 25 18 21 22 17 19 19 20 22 22 19 16 20 21 21 22 27 27 26 25 26 22 16
4 2 2 2 1 3 2 2 1 1 1 2 3 3 2 2 4 3 3 3 4 9 7 12 15 6 10 13 8 14 18 22 21 24 26 17 12 16 20 19 22 25 21 23 24 23 24 23 24 25 25 21 21 19
3 3 3 4 2 5 4 5 5 4 2 1 3 3 2 1 3 3 1 3 4 4 5 14 14 7 4 3 9 16 24 23 15 10 20 21 17 17 18 21 24 25 20 23 21 19 20 23 24 24 21 21 21 21
3 1 3 2 2 1 2 4 4 3 2 3 2 4 2 2 3 2 2 3 3 2 3 3 4 4 5 11 5 11 16 21 26 16 20 23 22 16 10 7 10 19 21 19 17 18 19 19 19 19 20 23 22 19
3 2 3 1 3 2 2 3 3 3 5 5 3 3 3 3 2 2 3 5 2 5 9 10 17 14 9 14 18 18 21 23 20 17 17 21 23 23 21 17 12 19 22 15 13 17 17 18 20 19 19 20 21 18
3 2 2 4 3 3 2 2 4 4 3 4 3 5 2 2 3 3 4 10 11 4 13 18 19 19 19 19 17 16 17 19 19 14 14 17 18 22 22 21 22 23 24 16 17 16 16 17 18 17 17 17 16 15
2 2 2 4 0 2 2 3 2 0 2 2 3 2 3 2 3 4 10 13 16 7 13 13 13 15 20 20 18 16 16 18 17 8 7 4 9 18 20 20 21 22 23 20 15 16 15 15 15 14 13 13 14 15
4 4 3 2 3 3 3 4 4 3 2 4 4 2 1 2 6 8 10 12 11 11 10 14 13 14 13 17 16 15 13 15 16 11 3 3 8 14 18 17 17 18 19 18 12 13 13 13 14 14 14 15 15 15
5 4 2 3 3 3 5 7 11 6 4 4 4 3 4 2 2 5 5 7 15 13 14 14 13 12 14 11 9 14 9 8 10 12 9 8 9 10 14 15 16 19 20 12 10 12 13 13 14 15 15 16 16 16
5 5 2 3 2 4 4 3 4 4 3 3 2 3 2 2 2 1 3 8 12 14 12 16 14 13 11 9 7 4 6 9 7 8 8 7 8 9 10 13 15 18 18 19 18 17 16 16 14 14 12 13 15 17
1 2 2 3 2 3 4 4 4 3 3 4 3 4 4 4 2 2 7 8 14 13 13 14 12 11 10 9 8 3 5 4 6 6 6 4 5 5 3 7 11 13 13 14 15 15 14 14 14 13 14 14 13 16
Wind_Direction
352 353 353 352 351 349 347 346 345 343 341 340 336 332 330 328 324 315 280 283 246 254 265 253 265 263 263 250 250 289 329 333 324 227 243 207 217 247 267 273 188 126 148 147 281 281 255 354 320 156 176 151 123 91
349 348 344 342 344 345 343 343 345 344 343 338 333 330 326 319 319 322 278 280 294 239 254 283 270 251 244 243 232 218 250 290 196 257 292 323 303 280 260 246 130 158 177 172 148 238 309 291 316 340 92 98 31 73
346 345 345 344 344 344 342 340 341 339 334 330 328 324 317 315 310 304 286 296 283 263 282 265 250 265 251 243 232 238 256 210 189 140 4 274 273 291 229 224 164 174 152 120 60 275 2 352 325 21 51 71 88 80
346 346 343 342 343 340 336 333 332 331 334 328 315 313 313 308 304 305 284 280 280 260 270 281 272 277 272 260 231 211 220 251 139 133 175 247 252 267 277 279 242 201 129 105 297 308 342 341 350 309 68 69 70 71
334 336 335 337 337 335 333 330 329 329 328 322 315 310 305 305 302 301 295 280 252 225 275 289 304 276 317 324 224 211 215 227 221 201 208 246 253 264 252 234 227 7 114 131 165 328 269 312 326 57 68 55 32 50
329 330 331 334 335 337 339 333 330 332 329 324 314 310 306 298 302 318 310 246 224 203 304 294 309 294 314 320 299 206 204 211 206 200 228 241 258 269 263 338 39 2 336 122 144 109 149 23 30 36 61 60 55 47
329 329 330 333 333 336 337 333 335 334 330 323 318 310 299 287 260 197 226 208 172 317 252 284 283 271 303 305 279 144 106 133 144 198 254 259 259 238 236 248 290 292 253 171 158 162 75 46 52 51 57 49 58 54
327 328 328 331 333 334 335 335 335 334 330 329 324 316 285 274 267 256 271 261 241 223 230 273 279 307 25 318 320 49 110 105 17 148 254 253 256 242 312 329 289 324 6 138 156 112 116 100 90 69 78 66 49 38
324 325 327 329 333 334 336 338 338 336 335 332 325 327 110 174 222 255 266 242 167 215 258 253 253 276 334 260 356 327 129 162 169 267 250 270 309 327 316 18 2 2 28 117 113 124 118 89 85 66 59 60 90 44
321 322 325 328 331 334 336 342 342 340 342 340 347 319 276 262 275 280 145 220 196 173 218 249 261 260 265 240 202 219 93 281 322 282 285 351 333 332 26 26 344 41 65 76 118 102 95 90 93 77 67 81 71 78
320 321 324 327 330 332 338 343 344 342 341 350 1 306 318 319 294 241 279 225 215 256 205 243 222 227 209 231 195 204 93 55 18 342 38 9 359 348 1 20 23 56 49 38 54 74 68 83 111 96 63 52 49 89
318 320 323 326 329 330 336 342 347 341 328 313 291 299 285 301 355 6 319 310 289 280 193 230 255 203 227 210 52 59 100 183 55 54 34 8 340 337 15 14 20 31 37 46 34 60 53 58 57 67 70 72 64 70
318 320 323 325 328 332 335 340 344 332 332 314 277 275 19 334 349 32 317 312 278 263 238 281 313 97 262 136 157 75 38 40 10 37 31 302 322 336 348 24 29 19 19 342 124 153 118 108 102 101 77 59 64 58
319 321 323 327 330 335 334 336 337 336 309 332 339 342 59 329 330 304 309 280 290 242 291 278 287 51 31 44 16 50 32 20 47 25 338 291 338 326 345 340 356 87 87 76 65 74 79 77 66 63 64 66 66 55
323 322 325 333 333 330 332 333 332 328 355 308 29 14 355 293 307 334 339 331 344 290 332 352 47 47 16 49 20 23 38 26 17 335 22 352 1 356 11 40 47 42 52 56 54 53 56 64 65 57 65 63 59 56
329 329 353 333 331 336 335 343 3 9 302 25 32 343 295 319 342 349 356 356 355 349 358 39 36 31 38 31 16 24 33 13 355 6 6 20 6 2 1 7 24 41 45 52 48 44 43 44 50 56 55 55 54 54
332 315 335 339 340 341 348 357 342 309 41 33 338 338 326 345 332 358 3 351 320 23 28 31 40 34 359 36 23 4 9 11 358 11 14 356 7 350 14 19 23 45 37 50 55 46 49 46 44 37 29 35 68 68
304 333 345 353 348 351 353 350 25 52 42 359 29 326 336 353 4 10 12 16 15 9 15 50 43 23 41 37 38 25 358 339 8 353 356 338 340 344 354 2 7 43 51 51 58 57 49 44 39 30 33 33 54 58
323 333 350 356 343 345 351 342 50 72 47 51 334 6 21 4 12 21 22 17 27 31 39 39 55 31 12 346 9 2 19 34 333 318 315 301 300 272 329 31 55 55 58 61 57 51 54 50 39 39 38 38 37 40
331 350 349 344 353 4 2 342 2 44 56 309 8 357 31 19 3 23 29 25 6 24 46 47 53 7 36 339 321 337 359 335 3 18 357 353 1 37 47 52 57 62 61 55 48 47 43 39 36 44 44 49 58 42
336 344 343 351 335 5 140 12 352 165 135 79 283 11 336 352 38 36 33 358 34 46 39 38 54 0 15 46 38 33 22 18 13 30 347 13 29 51 49 46 56 53 48 38 33 25 29 21 27 32 35 68 71 72
338 334 328 323 311 3 33 256 173 257 99 195 146 127 58 14 2 356 7 40 44 15 7 19 354 21 46 41 31 35 33 31 26 21 16 22 44 49 46 43 47 41 36 27 28 28 29 36 43 45 45 57 61 64
351 333 303 297 10 36 260 273 39 235 80 294 32 56 24 4 338 31 47 9 343 339 355 360 6 32 67 53 45 37 38 37 24 15 15 56 57 56 53 47 43 43 42 31 37 41 38 38 37 40 42 47 49 56
312 324 341 315 144 270 341 307 247 19 11 57 118 147 113 21 321 62 65 339 290 330 1 353 358 357 47 47 45 35 28 45 34 23 24 41 54 54 50 46 41 39 45 42 41 48 42 38 38 35 27 25 28 47
45 331 93 328 18 359 348 360 351 9 313 129 125 112 125 172 53 53 37 301 323 331 336 356 353 20 78 68 55 46 47 50 46 35 33 38 45 52 47 40 40 42 42 41 40 51 44 38 31 27 33 48 48 57
68 286 84 60 330 47 317 334 326 306 320 7 92 122 121 89 59 30 317 290 290 301 308 347 6 32 44 84 82 59 50 52 52 34 42 40 35 35 39 34 22 18 28 35 54 46 40 30 25 41 60 51 50 57
57 318 309 323 134 166 275 280 293 9 11 9 359 58 89 78 102 250 287 279 265 5 348 7 78 73 87 100 92 80 65 60 59 50 56 47 43 40 36 33 22 20 21 24 46 44 42 45 57 65 61 52 48 56
177 161 249 309 270 179 153 5 36 11 349 320 54 34 71 48 204 244 231 283 318 34 81 84 88 91 87 98 99 85 69 60 58 59 53 44 36 31 27 28 27 24 24 35 53 53 56 58 60 62 58 48 34 36
218 193 117 296 331 55 44 121 135 178 292 55 94 120 177 225 223 246 287 308 336 120 118 105 92 88 94 104 90 85 70 57 55 45 32 8 14 21 23 24 23 21 20 26 61 50 56 54 54 55 50 40 31 27
225 161 191 216 145 195 223 143 145 171 95 121 131 121 126 253 253 272 292 330 94 66 75 123 103 91 92 111 108 97 82 66 59 56 50 16 17 22 24 20 13 11 9 14 54 41 37 45 42 46 47 38 30 25
136 179 249 185 188 192 154 151 147 138 149 174 178 133 181 200 267 274 299 102 98 80 83 111 92 93 98 80 104 139 121 89 70 63 58 39 29 27 21 13 12 12 8 24 46 49 44 46 42 41 40 34 28 26
175 205 210 139 165 159 114 147 177 180 156 158 143 118 131 111 232 300 37 111 104 82 90 121 106 101 96 74 52 99 141 139 110 82 68 52 38 29 16 14 23 24 30 42 48 48 45 38 35 33 32 26 22 15
224 228 291 98 103 165 212 154 184 153 158 183 162 148 169 158 179 214 83 98 112 95 105 129 127 122 107 85 60 116 173 152 149 105 69 44 0 355 11 23 27 27 27 35 39 38 39 34 30 26 19 13 10 4